Location: Torrington
(42.0650°N, 104.1810°W)
Time: 11:06:27
(UTC-07:00)

Daily predictions for brighter satellites

Satellite Brightness Start Highest point End
(mag) Time Altitude Azimuth Time Altitude Azimuth Time Altitude Azimuth
Cosmos 1943 Rocket 2.7 17:12:11 10° N 17:17:23 37° ENE 17:22:32 10° SE
Cosmos 1992 Rocket 4.3 17:13:44 10° S 17:18:42 48° ESE 17:23:42 10° NNE
ERS-2 4.0 17:20:02 10° E 17:21:36 12° ENE 17:23:10 10° NE
NOSS 2-1 (C) 3.2 17:17:59 10° SSW 17:21:38 79° ESE 17:25:40 10° NE
NOSS 2-1 (D) 3.2 17:18:37 10° SSW 17:22:17 82° ESE 17:26:19 10° NE
ALOS 3.1 17:20:55 10° SE 17:24:50 28° ENE 17:28:47 10° N
Lacrosse 4 Rocket 3.9 17:24:02 10° W 17:26:27 15° NW 17:28:51 10° N
Geosat 4.1 17:24:22 10° NNE 17:29:25 84° WNW 17:34:26 10° SSW
Tiangong 1 0.4 17:27:23 10° W 17:29:52 80° N 17:32:19 10° E
Cosmos 2221 2.8 17:26:26 10° N 17:30:38 45° ENE 17:34:50 10° SSE
Cosmos 1908 3.2 17:27:40 10° N 17:31:35 88° E 17:35:26 10° S
Meteor 1-28 Rocket 3.3 17:30:53 10° N 17:34:43 83° WNW 17:38:30 10° SSW
IRS-1A Rocket 4.3 17:29:46 10° SSE 17:35:11 61° ENE 17:40:43 10° N
Cosmos 968 Rocket 3.8 17:32:12 10° N 17:37:08 43° ENE 17:41:59 10° SE
FENGYUN 3A 4.0 17:36:21 10° SE 17:41:21 42° ENE 17:46:22 10° N
Meteor 1-21 Rocket 4.3 17:36:11 10° S 17:42:00 67° E 17:47:54 10° NNE
ATLAS 2AS CENTAUR R/B 3.0 17:34:08 10° NW 17:42:09 86° NE 17:49:29 10° SE
KORONAS-FOTON 3.7 17:39:32 10° S 17:43:20 87° E 17:47:08 10° N
COSMO-SKYMED 1 2.9 17:40:03 10° NNE 17:44:16 46° E 17:48:25 10° S
H-2A R/B 4.2 17:43:45 10° ESE 17:46:18 17° ENE 17:48:52 10° NNE
Cosmos 1295 Rocket 4.4 17:41:53 10° N 17:48:00 78° E 17:54:08 10° S
SL-16 R/B 4.4 17:45:20 10° W 17:49:27 20° NW 17:53:37 10° N
NOSS 2-1 (E) 3.8 17:46:55 10° SW 17:50:33 57° NW 17:54:41 10° NNE
Cosmos 1400 Rocket 2.8 17:46:43 10° S 17:50:41 63° E 17:54:44 10° NNE
MTI 4.0 17:51:14 10° NNE 17:54:21 45° E 17:57:26 10° S
Cosmos 1726 2.1 17:51:01 10° N 17:54:42 88° W 17:58:21 10° S
Meteor 2-14 Rocket 4.4 17:50:16 10° N 17:56:26 87° E 18:02:30 10° S
MOS 1 4.3 17:51:58 10° SSE 17:57:31 63° ENE 18:03:06 10° N
METEOR-M 4.3 17:56:39 10° SSE 18:02:00 81° WSW 18:07:23 10° NNW
Cosmos 1943 3.5 17:57:18 10° SSW 18:02:55 71° WNW 18:08:34 10° NNE
NOSS 3-4 (A) 4.2 17:57:54 10° NNW 18:04:30 43° NE 18:11:31 10° ESE
NOSS 3-4 (C) 4.2 17:58:00 10° NNW 18:04:35 42° NE 18:11:37 10° ESE
Cosmos 1076 Rocket 3.4 18:00:45 10° S 18:05:05 74° E 18:09:28 10° NNE
Cosmos 2366 rocket 4.0 17:59:51 10° N 18:06:01 57° E 18:12:04 10° SSE
CZ-2C R/B 4.1 18:03:24 10° N 18:08:07 67° WNW 18:12:44 10° SSW
EO 1 Del DPAF 3.3 18:07:24 10° NNE 18:11:11 55° E 18:14:56 10° S
NOSS 3-3 (A) 4.5 18:05:44 10° SW 18:11:44 61° NW 18:18:23 10° NNE
NOSS 3-3 (C) 4.4 18:05:49 10° SW 18:11:50 61° NW 18:18:30 10° NNE
Cosmos 44 3.8 18:08:42 10° S 18:12:30 32° ESE 18:14:02 25° ENE
Cosmos 1328 Rocket 4.3 18:09:30 10° NNE 18:13:19 28° ENE 18:17:04 10° SE
Meteor 2-10 4.4 18:16:06 10° NNW 18:21:05 63° W 18:26:07 10° S
Cosmos 1703 4.2 18:18:04 10° SSE 18:21:02 28° ESE 18:21:02 28° ESE
Okean 3 Rocket 3.9 18:17:45 10° SSW 18:22:16 69° W 18:26:48 10° N
Cosmos 1766 Rocket 3.4 18:19:55 10° S 18:24:12 66° E 18:28:30 10° NNE
CZ-4 R/B 3.6 18:21:00 10° SSW 18:24:41 29° W 18:28:26 10° NW
Landsat 4 3.9 18:21:06 10° N 18:24:50 69° WNW 18:28:32 10° SSW
SPOT 3 Rocket 3.5 18:25:16 10° SSE 18:30:25 86° WSW 18:35:36 10° NNW
SKYMED 2 4.4 18:28:05 10° N 18:32:19 52° WNW 18:36:31 10° SSW
Cosmos 44 Rocket 3.5 18:29:21 10° S 18:33:45 43° ESE 18:34:45 38° E
OAO 3 Rocket 4.2 18:31:13 10° WSW 18:35:29 35° S 18:37:32 24° SE
SL-14 R/B 4.2 18:31:47 10° SSW 18:35:39 49° W 18:39:32 10° N
Cosmos 1626 1.9 18:35:38 10° S 18:39:19 76° E 18:40:36 39° NNE
Cosmos 1300 4.0 18:37:27 10° NNW 18:41:05 41° W 18:44:41 10° SSW
USA 81 4.3 18:37:20 10° SSE 18:42:16 42° E 18:43:26 37° NE
Cosmos 2369 Rocket 4.2 18:37:29 10° NW 18:42:21 30° WSW 18:47:14 10° SSW
Cosmos 1777 Rocket 3.8 18:44:53 10° NNW 18:50:08 79° ENE 18:55:24 10° SSE
GEOS 3 Rocket 3.5 18:47:17 26° SE 18:50:24 74° NE 18:55:47 10° NNW
ERS-2 3.1 18:51:16 10° S 18:54:50 48° W 18:58:25 10° NNW
Cosmos 1315 Rocket 3.8 18:51:44 10° SSW 18:55:31 44° WNW 18:58:43 14° N
Cosmos 1656 Rocket 3.6 18:52:39 10° NNW 18:58:08 81° WSW 19:03:39 10° SSE
TSX-5 4.1 18:57:47 10° SW 19:00:37 50° WNW 19:00:37 50° WNW
Cosmos 1943 Rocket 4.0 18:56:08 10° NW 19:01:01 32° WSW 19:05:50 10° SSW
Cosmos 1346 Rocket 2.8 18:57:31 10° NNW 19:01:27 76° W 19:05:19 10° S
ALOS 4.2 18:58:03 10° SSW 19:02:10 31° W 19:06:18 10° NNW
Tiangong 1 3.7 19:01:46 10° W 19:02:19 15° W 19:02:19 15° W
Meteor 1-27 4.2 19:01:03 10° NNW 19:06:45 83° W 19:12:31 10° S
Cosmos 2098 Rocket 3.7 19:03:01 10° N 19:08:01 80° W 19:14:19 10° S
Cosmos 2239 Rocket 4.4 19:03:43 10° N 19:09:47 59° E 19:10:29 56° ESE
Meteor 1-11 4.4 19:04:47 10° SSW 19:10:21 70° WNW 19:16:00 10° N
CZ-3 Stage 3 4.2 19:05:21 10° SW 19:11:09 20° S 19:12:08 18° S
H-2A R/B 4.4 19:16:50 10° SSW 19:20:17 33° W 19:23:47 10° NNW
Cosmos 2228 Rocket 3.8 19:19:39 10° NNW 19:29:57 - S 19:23:13 50° NW
COSMOS 2406 3.1 19:20:30 10° SSW 19:25:58 81° SSE 19:25:58 81° SSE
Thor Agena Rocket 4.5 19:51:34 45° WNW 19:51:48 46° WNW 19:56:47 10° SW
Cosmos 1821 Rocket 4.4 19:52:18 10° NNW 19:58:17 57° W 20:04:21 10° S
